Tracking 30995 objects as of 5-Jul-2025
HD Live streaming from Space Station
objects crossing your sky now

COSMOS 1275 DEB

Track COSMOS 1275 DEB now!
10-day predictions


NORAD ID: 42183
Int'l Code: 1981-053SX
Perigee: 909.7 km
Apogee: 984.6 km
Inclination: 82.9 °
Period: 103.8 minutes
Semi major axis: 7318 km
RCS: Unknown
Launch date: June 4, 1981
Source: Commonwealth of Independent States (former USSR) (CIS)
Launch site: PLESETSK MISSILE AND SPACE COMPLEX (PKMTR)

Note: This is SATELLITE DEBRIS
Your satellite tracking list
COSMOS 1275 DEB
Track 1 satellite(s)




NASA's NSSDC Master Catalog

Two Line Element Set (TLE):
1 42183U 81053SX  25184.54651301  .00001001  00000-0  83794-3 0  9996
2 42183  82.9367 113.3611 0051129 355.1432 182.9018 13.86757383566289
Source of the keplerian elements: AFSPC